sat.trackr.live / text

‹ back to catalog

STARLINK-5183

NORAD 54084 · 2022-136AK

PAYLOAD ACTIVE UNKNOWN

§ Identity

Operator
Country
US
Launch date
2022-10-20
Launch site
AFETR
Launch vehicle
Mass (kg)
RCS (m²)

Purposes: comms

External: N2YO · Heavens-Above · Gunter

§ Orbital elements

Epoch: 2026-05-25T00:12:58.025088Z

Period
95.44 min
Inclination
53.2124°
Eccentricity
0.0002469
Mean motion
15.08849084 rev/d
Perigee alt
538.0 km
Apogee alt
541.4 km
Semi-major
6,917.9 km
B*
-1.0799e-4
RAAN
351.6537°
Arg perigee
94.2332°
Mean anomaly
265.8943°
Rev number
19,850

§ Raw data

STARLINK-51831 54084U 22136AK  26145.00900492 -.00002007  00000+0 -10799-3 0  99962 54084  53.2124 351.6537 0002469  94.2332 265.8943 15.08849084198501

JSON: /api/v1/satellites/54084 · /tle

For live sub-satellite position, see the globe view (requires WebGL).

§ Visibility from observer

Set your observer location to see the next 7 days of passes ≥ 10°. The values pass through the URL so the page stays shareable.

No JS? Fill the form by hand. The geolocation button needs JavaScript.